Regional Weather Roundup
Issued by NWS Sterling, VA

Home | Current Version | Previous Version | Text Only | Print | Product List | Glossary Off
Versions: 1 2 3 4 5 6 7 8 9 10 11 12 13 14 15 16 17 18 19 20 21 22 23 24 25 26 27

000
ASUS41 KLWX 281011
RWRLWX

REGIONAL WEATHER ROUNDUP
NATIONAL WEATHER SERVICE BALTIMORE MD/WASHINGTON DC
600 AM EDT SUN MAY 28 2017

Note: "FAIR" indicates few or no clouds below 12,000 feet
with no significant weather and/or obstructions to visibility.
 TC=TEMPERATURE CELSIUS

 * =Non NWS site. Station does not report precipitation (e.g. rain,
    snow, etc.), thunder, or fog.

DCZ001-MDZ009-015-VAZ040>042-051-053>054-281100-
WASHINGTON METRO

CITY           SKY/WX    TMP DP  RH WIND       PRES   REMARKS
WASHINGTON NAT CLOUDY    62  61  96 N3        29.88R
DULLES         MOCLDY    58  56  93 NE5       29.87R
ANDREWS AFB    CLEAR     57  56  98 CALM      29.87S
FT BELVOIR     PTCLDY    59  57  94 CALM      29.87S FOG
QUANTICO       PTCLDY    64  63  96 NE7       29.87R
COLLEGE PARK*  CLEAR     57  56  97 CALM      29.88R
LEESBURG*      MOCLDY    59  59 100 NE3       29.89S FOG
MANASSAS*      CLOUDY    61  60  97 CALM      29.88R
GAITHERSBURG*  FOG       58  57  97 CALM      29.89S VSB 1/4

$$

MDZ006>007-011-014-281100-
BALTIMORE METRO

CITY           SKY/WX    TMP DP  RH WIND       PRES   REMARKS
BWI AIRPORT    MOCLDY    57  57 100 CALM      29.88R
MD SCIENCE CTR   N/A     63  61  93 MISG      29.89R
MARTIN STATE   MOCLDY    61  61 100 CALM      29.90R FOG
ANNAPOLIS      CLEAR     64  60  87 CALM      29.88R
FORT MEADE*    CLEAR     54  52  94 CALM      29.91R

$$

MDZ012-015-019>023-281100-
MARYLAND EASTERN SHORE

CITY           SKY/WX    TMP DP  RH WIND       PRES   REMARKS
OCEAN CITY     CLOUDY    57  55  93 CALM      29.88R
SALISBURY      CLOUDY    58  56  93 CALM      29.88R
BAY BRIDGE AP* PTCLDY    59  55  88 CALM      29.89R
CAMBRIDGE*       N/A     57  55  94 CALM      29.88R
EASTON*        MOCLDY    57  55  94 CALM      29.91R

$$

MDZ017>025-281100-
SOUTHERN MARYLAND

CITY           SKY/WX    TMP DP  RH WIND       PRES   REMARKS
PATUXENT RIVER CLEAR     63  61  93 SE7       29.86R
ST INIGOES     PTCLDY    62  60  93 CALM      29.85R
LEONARDTOWN*   CLEAR     59  57  94 CALM      29.88R

$$

MDZ003>005-281100-
NORTH CENTRAL MARYLAND

CITY           SKY/WX    TMP DP  RH WIND       PRES   REMARKS
FREDERICK*     FOG       59  59 100 CALM      29.92R VSB 1/4
HAGERSTOWN APT FOG       58  58 100 CALM      29.89R VSB 1/4
WESTMINSTER*   MOCLDY    57  57 100 CALM      29.90R FOG

$$

MDZ501>502-281100-
WESTERN MARYLAND

CITY           SKY/WX    TMP DP  RH WIND       PRES   REMARKS
OAKLAND*       FOG       57  57 100 SE7       29.90S VSB 1/4
CUMBERLAND*    CLOUDY    61  61 100 CALM      29.91R VSB<1/4

$$

VAZ025>031-281100-
SHENANDOAH VALLEY

CITY           SKY/WX    TMP DP  RH WIND       PRES   REMARKS
WINCHESTER*    FOG       59  59 100 CALM      29.87S VSB 1/4
FRONT ROYAL*   CLOUDY    61  61 100 CALM      29.86S VSB<1/4
LURAY*         CLOUDY    63  63 100 CALM      29.87S FOG
NEW MARKET*    CLOUDY    62  60  96 CALM      29.86S
STAUNTON*      CLOUDY    62  61  97 CALM      29.88F FOG
WAYNESBORO*    CLOUDY    60  60 100 CALM      29.87F VSB 3/4

$$

WVZ021-048>050-054>055-281100-
EASTERN WEST VIRGINIA PANHANDLE

CITY           SKY/WX    TMP DP  RH WIND       PRES   REMARKS
MARTINSBURG    FOG       58  57  97 CALM      29.87S VSB 1/4
PETERSBURG*    CLOUDY    64  64  99 CALM      29.86F FOG

$$

VAZ036>039-050-281100-
CENTRAL FOOTHILLS

CITY           SKY/WX    TMP DP  RH WIND       PRES   REMARKS
CHARLOTTESVILL CLOUDY    63  61  93 N3        29.85S
CULPEPER*      CLOUDY    59  59 100 CALM      29.88F FOG
ORANGE*        MOCLDY    61  59  94 N3        29.85F
GORDONSVILLE*  PTCLDY    60  60 100 NE3       29.84F
WARRENTON*     CLOUDY    62  59  89 CALM      29.87S FOG

$$

VAZ055>057-281100-
NORTH AND CENTRAL PIEDMONT

CITY           SKY/WX    TMP DP  RH WIND       PRES   REMARKS
FREDERICKSBRG* CLOUDY    63  63 100 N5        29.85S
STAFFORD*      CLOUDY    60  60 100 NW3       29.90S FOG

$$

NCZ024-NYZ072-PAZ021-071-VAZ022-071-281100-
OTHER REGIONAL OBSERVATIONS

CITY           SKY/WX    TMP DP  RH WIND       PRES   REMARKS
NEW YORK CITY  MOCLDY    58  57  97 CALM      29.93S FOG
PHILADELPHIA   MOCLDY    62  60  93 CALM      29.89S
PITTSBURGH     FOG       58  58 100 CALM      29.82F VSB 3/4
ROANOKE        MOCLDY    66  65  96 SE8       29.87F
RICHMOND       FOG       65  64  97 NE3       29.84R VSB 1/4
RALEIGH        CLOUDY    68  66  93 NE8       29.78F

$$

ANZ530>537-281100-
MARINE OBSERVATIONS

STATION/POSITION TIME  TEMP    WIND        PRES
                       AIR SEA DIR/SP/G
                 (UTC) (F)     (DEG/KT/KT) (MB)
THOMAS PT LIGHT  1000   64 65  150/  5/  6   N/A
BALT KEY BRIDGE  0936   62      30/  4/  4 1011.7R
COVE POINT       0936   63     120/  6/  9 1011.8R
LEWISETTA        0936   66 70  120/  9/ 10 1010.7R
SOLOMONS ISLAND  0936   65 67  100/  9/ 10   N/A
PINEY POINT      0948          100/  6/  8   N/A

$$





USA.gov is the U.S. government's official web portal to all federal, state and local government web resources and services.